This is the latest recevied weather packets stored in our database for station/object PI8ANH-13. If no packets are shown the sender has not sent any weather packets the latest 10 day(s).
| Time | Temp. | Humidity | Pressure | Rain* | Wind** | Luminosity | Snow |
|---|---|---|---|---|---|---|---|
| 1777716898 | 21.11° C | 43% | 1018 hPa | - | - | - | - |
| 1777715998 | 20° C | 43% | 1018 hPa | - | - | - | - |
| 1777715098 | 20° C | 43% | 1018 hPa | - | - | - | - |
| 1777714198 | 17.78° C | 52% | 1018 hPa | - | - | - | - |
| 1777713298 | 17.78° C | 52% | 1018 hPa | - | - | - | - |
| 1777712398 | 16.11° C | 51% | 1018 hPa | - | - | - | - |
| 1777711498 | 16.11° C | 51% | 1018 hPa | - | - | - | - |
| 1777710598 | 15° C | 55% | 1018 hPa | - | - | - | - |
| 1777709698 | 15° C | 55% | 1018 hPa | - | - | - | - |
| 1777708798 | 16.11° C | 45% | 1018 hPa | - | - | - | - |
| 1777707898 | 16.11° C | 45% | 1018 hPa | - | - | - | - |
| 1777706998 | 17.22° C | 42% | 1018 hPa | - | - | - | - |
| 1777706098 | 17.22° C | 42% | 1018 hPa | - | - | - | - |
| 1777705198 | 16.11° C | 45% | 1018 hPa | - | - | - | - |
| 1777704298 | 16.11° C | 45% | 1018 hPa | - | - | - | - |
| 1777703398 | 13.89° C | 51% | 1018 hPa | - | - | - | - |
| 1777702498 | 13.89° C | 51% | 1018 hPa | - | - | - | - |
| 1777701598 | 12.78° C | 51% | 1018 hPa | - | - | - | - |
| 1777700698 | 12.78° C | 51% | 1018 hPa | - | - | - | - |
| 1777699798 | 11.11° C | 54% | 1018 hPa | - | - | - | - |
| 1777698898 | 11.11° C | 54% | 1018 hPa | - | - | - | - |
| 1777697998 | 10° C | 58% | 1018 hPa | - | - | - | - |
| 1777697098 | 10° C | 58% | 1018 hPa | - | - | - | - |
| 1777696198 | 11.11° C | 54% | 1018 hPa | - | - | - | - |
| 1777695298 | 11.11° C | 54% | 1018 hPa | - | - | - | - |
* Rain since midnight (hover to see other rain measurements)
** Current wind speed in m/s (hover to see current wind gust speed)